IK1AMC-3 Weather Reports


time (UTC)temp
C
wind
direction
speed
KPH
gust
KPH
rain 1hr
cm
rain 24hr
cm
rain mn
cm
humidity
%
barometer
mb
20260503175757 18 0.0 0.0 0.00 0.00 0.00 61 1017.4
20260503173755 18 0.0 0.0 0.00 0.00 0.00 60 1017.3
20260503171754 18 0.0 0.0 0.00 0.00 0.00 59 1017.5
20260503071715 17 0.0 0.0 0.00 0.00 0.00 62 1019.8
20260503053709 15 0.0 0.0 0.00 0.00 0.00 67 1019.6
20260503051707 14 0.0 0.0 0.00 0.00 0.00 66 1019.5
20260503045706 14 0.0 0.0 0.00 0.00 0.00 66 1019.5
20260503043705 13 0.0 0.0 0.00 0.00 0.00 65 1019.3
20260503041704 13 0.0 0.0 0.00 0.00 0.00 66 1019.3
20260503035702 13 0.0 0.0 0.00 0.00 0.00 64 1019.3
20260503033701 13 0.0 0.0 0.00 0.00 0.00 64 1019.4
20260503031700 14 0.0 0.0 0.00 0.00 0.00 65 1019.5
20260503025658 14 0.0 0.0 0.00 0.00 0.00 66 1019.5
20260503023657 14 0.0 0.0 0.00 0.00 0.00 66 1019.8
20260503021656 14 0.0 0.0 0.00 0.00 0.00 66 1019.6
20260503015655 14 0.0 0.0 0.00 0.00 0.00 67 1019.7
20260503013653 15 0.0 0.0 0.00 0.00 0.00 64 1019.6
20260503011652 14 0.0 0.0 0.00 0.00 0.00 66 1019.8
20260503005651 14 0.0 0.0 0.00 0.00 0.00 66 1019.8
20260503003649 15 0.0 0.0 0.00 0.00 0.00 64 1019.9
20260503001648 14 0.0 0.0 0.00 0.00 0.00 65 1020.2
20260502235647 15 0.0 0.0 0.00 0.00 0.00 63 1020.0
20260502233645 15 0.0 0.0 0.00 0.00 0.00 62 1020.1
20260502231644 15 0.0 0.0 0.00 0.00 0.00 60 1020.6
20260502225643 15 0.0 0.0 0.00 0.00 0.00 60 1020.7
20260502223642 15 0.0 0.0 0.00 0.00 0.00 58 1020.8
20260502221640 15 0.0 0.0 0.00 0.00 0.00 56 1020.9
20260502215639 16 0.0 0.0 0.00 0.00 0.00 54 1020.9
20260502213638 15 0.0 0.0 0.00 0.00 0.00 53 1020.9
20260502211637 15 0.0 0.0 0.00 0.00 0.00 51 1021.0
20260502205635 16 0.0 0.0 0.00 0.00 0.00 49 1021.2
20260502203634 16 0.0 0.0 0.00 0.00 0.00 46 1021.1
20260502201633 16 0.0 0.0 0.00 0.00 0.00 46 1021.1
20260502195631 17 0.0 0.0 0.00 0.00 0.00 45 1021.1
20260502193630 17 0.0 0.0 0.00 0.00 0.00 44 1020.9
20260502191629 18 0.0 0.0 0.00 0.00 0.00 43 1020.7
20260502185628 18 0.0 0.0 0.00 0.00 0.00 44 1020.5
20260502183627 19 0.0 0.0 0.00 0.00 0.00 48 1020.3
20260502181625 19 0.0 0.0 0.00 0.00 0.00 50 1020.2